OBJECT Z, 47436

Orbit data source: Space-Track

You're viewing an uncataloged RSO

Recently launched and/or uncataloged RSOs may have evolving metadata. Metadata may include the following, but is not limited to: Owner, Manufacturer, Bus, Motor, and Mission.

OBJECT Z, 47436 is a satellite in SSO that was launched on Sun, 24 Jan 2021 UTC launched from the Air Force Eastern Test Range (AFETR). Unknown objects in Earth's orbit typically refer to objects detected orbiting the Earth but have not yet been identified or cataloged. These objects could be anything from previously untracked satellites, spent rocket stages, debris from satellite collisions, or even natural meteoroids temporarily captured by Earth's gravity.

Loading next visibility...
Identifier
47436, 2021-006Z
Orbit
SSO
Country
Flag of TBDTBD
Related business
Manufacturer
SpaceX/Seattle
Mission
Spacecraft
Bus & Motor
Unknown
Mass
~100 kg wet, ~100 kg dry
Launch date (UTC)
2021-01-24 (6 years ago)
Launch vehicle
Unknown
Launch site
Air Force Eastern Test Range (AFETR)
Object type
Unknown
Shape & HBR
Cyl, 3.5 m
Radar Cross Section
0.110 m², Medium (>0.1 m² and < 1m²)

Expand to show TLE details & history
Last TLE update: 5 hours ago

TLE from 5 hours ago
0 OBJECT Z
1 47436U 21006Z   26255.30759956  .00003650  00000-0  11750-3 0  9998
2 47436  97.2156 295.2791 0008099 237.2245 122.8218 15.32815229312730
Epoch: 2026-09-12T07:22Z
TLE epoch observation values (Epoch: 2026-09-12T07:22:56.601Z)
Latitude
-0.00003°
Longitude
-166.77521°
Altitude
473.54 km
Speed
7.627 km/s
True Right ascension
19h 41m 06s
True Declination
0° 00' 00"
Sunlit
Object was in full shadow at epoch
Visualization orbit readout
Latitude
Unknown
Longitude
Unknown
Altitude
Unknown
Speed
Unknown
Apparent Right ascension
Unknown
Apparent Declination
Unknown
Sunlit
N/A
Visualization observer readout
Local Sidereal Time
04:23:29
Azimuth
Unknown
Elevation
Unknown
Doppler factor
Unknown
Orbital elements
Apogee altitude
469.9 km
Perigee altitude
458.817 km
Semi-major axis
6,842.495 km
Eccentricity
0.00081
Inclination
97.2156°
RAAN
295.2791°
Arg. of periapsis
237.2245°
True anomaly
122.89975°
Mean anomaly
122.8218°
Eccentric anomaly
122.86078°
Mean motion
3.83461 °/min
Orbital period
93.88 mins
BSTAR
0.0001175
Loading maneuver chart data...
Computing Atmospheric mass density...
Loading historical data...
Loading historical data...
Loading historical data...
Loading historical data...
Loading historical data...
Loading historical data...
Loading historical data...

Documentation

Showing up to 5 results
|